Location: Cactus School
(34.5700°N, 118.0931°W)
Time: 22:01:59
(UTC-07:00)

Vanguard 2 - Pass Details

Date: 26 April 2024
Orbit: 553 x 2914 km, 32.9° (Epoch: 18 May)

Event Time Altitude Azimuth Distance (km) Brightness Sun altitude
Exits shadow 23:47:25 28° 91° (E) 3,786 10.8 -39.2°
Drops below altitude 10° 23:54:12 10° 80° (E) 5,447 11.7 -39.6°
Sets 23:59:04 0° 76° (ENE) 6,643 12.3 -39.9°
